STARLINK-32785, 62531

Orbit data source: Space-Track

STARLINK-32785, 62531 is a payload satellite owned by SpaceX/Seattle (US) in LEO that was launched on Wed, 08 Jan 2025 UTC via an FALCON 9 launch vehicle from the Air Force Eastern Test Range (AFETR). Payloads include a variety of satellites, spacecraft, and rockets equipped with specific instruments for various scientific and technological missions. These include communications satellites like Starlink; space stations such as the ISS; scientific satellites like the Hubble; Earth observation satellites from companies like Planet Labs, Umbra, and HawkEye 360; GPS; miniature CubeSats for education and research; and military/defense satellites.

Loading next visibility...
STARLINK-32785 details
Identifier
62531, 2025-004W
Orbit
LEO
Last TLE update8 hours ago
Origin
Flag of USSpaceX/Seattle (US)
ManufacturerSpaceX/Seattle
MissionOperational spacecraft
Bus & MotorSTARLINK V2M, Unknown motor
Mass730 kg wet, ~700 kg dry
Launch date (UTC)
2025-01-08 (1 month ago)
Launch vehicle
FALCON 9
Launch site
Air Force Eastern Test Range (AFETR)
Object type
Payload
Rocket body
Debris
Shape & HBRUnknown
Radar Cross SectionLarge (>1 m²)

Expand to show TLE details & history

TLE from 8 hours ago
0 STARLINK-32785
1 62531U 25004W   25035.83335648  .00016729  00000-0  40699-3 0  9999
2 62531  42.9990 312.0076 0001076 266.8291   0.9592 15.40690920  5522
Epoch: 2025-02-04T20:00Z
Definitive object data (Epoch: 2025-02-04T20:00:01.999Z)
Latitude-43.11822°
Longitude143.74957°
Altitude456.657 km
Speed7.639 km/s
True Right ascension14h 35m 57s
True Declination-42° 56' 21"
Sunlit
Object was in daylight at TLE epoch
Visualization TLE readout
Latitude-17.25567°
Longitude-144.51642°
Altitude447.298 km
Speed7.645 km/s
Apparent Right ascension18h 49m 54s
Apparent Declination-28° 22' 43"
Sunlit
Object is in daylight
Visualization observer readout
Local Sidereal Time06:05:51
Azimuth318.457° NNW
Elevation-75.324°
Doppler factor1
Orbital elements
Apogee altitude446.76 km
Perigee altitude445.291 km
Semi-major axis6,824.162 km
Eccentricity0.0001076
Inclination42.999°
RAAN312.0076°
Arg. of periapsis266.8291°
True anomaly0.95941°
Mean anomaly0.9592°
Eccentric anomaly0.9593°
Mean motion3.85007 °/min
BSTAR0.00040699
Orbital period93.5 mins
Loading maneuver chart data...
Loading historical data...
Loading historical data...
Loading historical data...
Loading historical data...
Loading historical data...
Loading historical data...
Loading historical data...

STARLINK-32785 Visibility forecast

Observer location: undefined°, undefined

Span
Click to sort rows by Start time (UTC) header in descending order
Start Az.
Max El. time (UTC)
Max El. Az.
Max El.
End time (UTC)
End Az.
6 mins2025-02-05 21:30:04.903Z219.492° SW2025-02-05 21:33:04.903Z148.234° SSE32.226°2025-02-05 21:36:04.903Z83.018° E
5 mins2025-02-05 23:09:04.903Z273.023° WNW2025-02-05 23:11:04.903Z356.607° N41.526°2025-02-05 23:14:04.903Z69.269° E
5 mins2025-02-06 00:47:04.903Z294.493° NW2025-02-06 00:49:04.903Z348.259° N37.83°2025-02-06 00:52:04.903Z81.168° E
5 mins2025-02-06 02:25:04.903Z281.151° WNW2025-02-06 02:27:04.903Z241.281° WSW40.132°2025-02-06 02:30:04.903Z124.48° SE
|